COSMOS 1275 DEB

Satellite information

Favourite Embed

Satellite Type and Status

DEBRISIN ORBIT

Key statistics

Satellite COSMOS 1275 DEB at a glance.

Uptime

16045

Days in orbit

Revolutions

≈ 13.9

Per day

Orbit

LEO

Low Earth Orbit

Inclination

83.0

Latest

Satellite identification and parameters

Extended collection of information and parameters for COSMOS 1275 DEB.

Object identification

Identified? True

Debris? True

Object name: COSMOS 1275 DEB

International designator: 1981-053PN

Object number (NORAD): 42102

Object ID (CCSDS): 42102

Country: COMMONWEALTH OF INDEPENDENT STATES (CIS)

Current information (Y/N): Y

RCS size: SMALL

Orbital parameters

Period: 103.747 minutes

Inclination: 83.012 deg

SMA: 7313.792 km

Apoapsis: 989.789 km

Periapsis: 881.524 km

RAAN: 356.8664 deg

Eccentricy: 0.0074014

Argument of periapsis: 341.0609 deg

Mean anomaly: 18.7803 deg

Mean motion: 13.87998173 rev/day

Mean motion (dot): 0.00001323 rev/day2

B* drag term: 0.0010753 1/REarth

Two-line elements (TLE)

Creation date: May 8, 2025, 10:46 p.m.

Reference frame: TEME

Reference center: EARTH

Epoch: May 8, 2025, 9:10 a.m. UTC

TLE line 0: 0 COSMOS 1275 DEB

TLE line 1: 1 42102U 81053PN 25128.38194942 .00001323 00000-0 10753-2 0 9991

TLE line 2: 2 42102 83.0120 356.8664 0074014 341.0609 18.7803 13.87998173205518

Live tracking on map

Real-time ground track for satellite COSMOS 1275 DEB.

In-orbit conjunctions

A list of the most updated potential collisions computed for object COSMOS 1275 DEB.

Target Orbit TCA Probability of collision Miss distance Type
COSMOS 911 LEO 2025-03-30 12:11:33 0.0001111284 768.0 (m) PAYLOAD
CALSPHERE 1 SSO 2025-03-14 08:28:51 0.0005129544 251.0 (m) PAYLOAD
FENGYUN 1C DEB SSO 2024-12-19 21:07:38 0.0001389101 53.0 (m) DEBRIS
SL-3 R/B SSO 2024-09-21 14:30:41 0.000170482 76.0 (m) ROCKET BODY
FENGYUN 1C DEB SSO 2024-07-10 12:14:17 0.0003074587 196.0 (m) DEBRIS

Associated space launch

Navigation satellite providing location information for the Tsiklon-B navigation system

COSMOS 1275 DEB was lifted into orbit during the mission ‘Kosmos-3M | Parus 27’, on board a Kosmos-3M space rocket.

The launch took place on June 4, 1981, 3:41 p.m. from 132/2.

For more information about the launch, click the button.

Launch to space Kosmos-3M | Parus 27
Kosmos-3M | Parus 27

Agency: N/A

Status: Launch Successful

Launch date: June 4, 1981, 3:41 p.m. UTC

Rocket: Kosmos-3M

Launch pad: 132/2

Location: Plesetsk Cosmodrome, Russian Federation

...

Latest news about this satellite

There are no fresh news available about this satellite. Check back as we update our databases every day.


Newsletter sign-up

Weekly statistics, charts and insights to help you stay on top of the space industry.